Location: Hobi?a Gr?di?te
(45.4833°N, 22.7833°E)
Time: 21:26:18
(UTC+00:00)

Cosmos 1340 Rocket - Pass Details

Date: 28 January 2023
Orbit: 515 x 558 km, 81.2° (Epoch: 23 March)

Event Time Altitude Azimuth Distance (km) Brightness Sun altitude
Rises 16:20:41 0° 165° (SSE) 2,620 6.3 -9.2°
Reaches altitude 10° 16:22:58 10° 154° (SSE) 1,741 5.3 -9.6°
Maximum altitude 16:26:18 29° 92° (E) 966 3.5 -10.2°
Drops below altitude 10° 16:29:42 10° 32° (NNE) 1,768 5.0 -10.8°
Enters shadow 16:30:50 - 25° (NNE) 2,194 5.5 -11.0°
